User: anonymous   Login
Location: ?????
(32.7281°N, 34.9563°E)
Time: 23:26:19
(UTC+00:00)
Language:

Cosmos 2058 - Orbit

View from above orbital plane
View from above orbital plane
View from above satellite
View from above satellite

Ground track
Ground track

The orbit data is extracted from the following two-line orbital elements,

1 20465U 90010A   21021.53395029  .00000237  00000-0  17646-4 0  9999
2 20465  82.4879  63.4885 0015402 180.0133 180.1092 14.98124818660974
Epoch (UTC): 21 January 2021 12:48:53
Eccentricity: 0.0015402
inclination: 82.4879°
perigee height: 562 km
apogee height: 583 km
right ascension of ascending node: 63.4885°
argument of perigee: 180.0133°
revolutions per day: 14.98124818
mean anomaly at epoch: 180.1092°
orbit number at epoch: 66097

The dashed part of the orbit path shows where the satellite is in the earth's shadow,  

DLR